Kenai, AK

1:45 AM AKDT on June 25, 2017 (GMT -0800)
Kenai Municipal

Weather History for PAEN - February, 2011

Change the Weather History Date:

Sunday, February 6, 2011

  Actual Average Record
Temperature  
Mean Temperature 18 °F -  
Max Temperature 27 °F 28 °F 42 °F (2003)
Min Temperature 8 °F 13 °F -29 °F (1950)
Degree Days  
Heating Degree Days 48    
Moisture  
Dew Point 14 °F    
Average Humidity 70    
Maximum Humidity 84    
Minimum Humidity 63    
Precipitation  
Precipitation 0.00 in - - ()
Sea Level Pressure  
Sea Level Pressure 30.19 in    
Wind  
Wind Speed 16 mph (NE)    
Max Wind Speed 25 mph    
Max Gust Speed 34 mph    
Visibility 10 miles    
Events      
Averages and records for this station are not official NWS values.
T = Trace of Precipitation, MM = Missing Value Source: NWS Daily Summary

Daily Weather History Graph

Daily Weather History Graph

Search for Another Location

Airport or City:

Trip Planner

Search our weather history database for the weather conditions in past years. The results will help you decide how hot, cold, wet, or windy it might be!

Date:

Astronomy

Feb. 06, 2011 Rise Set
Actual Time 9:09 AM AKST 5:29 PM AKST
Civil Twilight 8:22 AM AKST 6:16 PM AKST
Nautical Twilight 7:31 AM AKST 7:07 PM AKST
Astronomical Twilight 6:42 AM AKST 7:56 PM AKST
Moon 9:15 AM AKST (2/6) 10:50 PM AKST (2/6)
Length of Visible Light 9h 54m
Length of Day
8h 20m
Waxing Crescent, 13% of the Moon is Illuminated
Feb 6
Waxing Crescent
Feb 10
First Quarter
Feb 17
Full
Feb 24
Last Quarter
Mar 4
New

Hourly Weather History & Observations

Time (AKST) Temp. Windchill Dew Point Humidity Pressure Visibility Wind Dir Wind Speed Gust Speed Precip Events Conditions
12:53 AM 25.0 °F 10.9 °F 15.1 °F 66% 30.18 in 10.0 mi NNE 19.6 mph - N/A   Overcast
1:53 AM 25.0 °F 9.2 °F 16.0 °F 69% 30.18 in 10.0 mi NNE 25.3 mph 34.5 mph N/A   Overcast
2:53 AM 25.0 °F 9.5 °F 15.1 °F 66% 30.17 in 10.0 mi NNE 24.2 mph - N/A   Overcast
3:53 AM 25.0 °F 9.9 °F 15.1 °F 66% 30.16 in 10.0 mi NNE 23.0 mph 29.9 mph N/A   Overcast
4:53 AM 25.0 °F 10.2 °F 15.1 °F 66% 30.15 in 10.0 mi NNE 21.9 mph - N/A   Mostly Cloudy
5:53 AM 25.0 °F 10.6 °F 16.0 °F 69% 30.14 in 10.0 mi NE 20.7 mph - N/A   Overcast
6:53 AM 25.0 °F 12.2 °F 15.1 °F 66% 30.14 in 10.0 mi NE 16.1 mph - N/A   Overcast
7:53 AM 25.0 °F 13.1 °F 16.0 °F 69% 30.14 in 10.0 mi NNE 13.8 mph - N/A   Overcast
8:53 AM 26.1 °F 13.6 °F 16.0 °F 66% 30.15 in 10.0 mi NNE 16.1 mph - N/A   Overcast
9:53 AM 26.1 °F 13.6 °F 15.1 °F 63% 30.16 in 10.0 mi NNE 16.1 mph - N/A   Overcast
10:53 AM 26.1 °F 14.5 °F 15.1 °F 63% 30.17 in 10.0 mi NE 13.8 mph - N/A   Overcast
11:53 AM 26.1 °F 14.0 °F 15.1 °F 63% 30.17 in 10.0 mi NE 15.0 mph - N/A   Mostly Cloudy
12:53 PM 26.1 °F 15.6 °F 16.0 °F 66% 30.18 in 10.0 mi NE 11.5 mph - N/A   Overcast
1:53 PM 27.0 °F 16.7 °F 16.0 °F 63% 30.18 in 10.0 mi NE 11.5 mph - N/A   Overcast
2:53 PM 27.0 °F 17.3 °F 17.1 °F 66% 30.18 in 10.0 mi ENE 10.4 mph - N/A   Mostly Cloudy
3:53 PM 27.0 °F 18.7 °F 16.0 °F 63% 30.19 in 10.0 mi ENE 8.1 mph - N/A   Overcast
4:53 PM 26.1 °F 18.4 °F 15.1 °F 63% 30.19 in 10.0 mi NE 6.9 mph - N/A   Mostly Cloudy
5:53 PM 21.9 °F 17.2 °F 12.9 °F 68% 30.20 in 10.0 mi NE 3.5 mph - N/A   Clear
6:53 PM 17.1 °F 11.7 °F 12.0 °F 81% 30.22 in 10.0 mi East 3.5 mph - N/A   Clear
7:53 PM 12.9 °F 6.9 °F 9.0 °F 84% 30.24 in 10.0 mi North 3.5 mph - N/A   Clear
8:53 PM 12.0 °F 5.9 °F 8.1 °F 84% 30.25 in 10.0 mi ENE 3.5 mph - N/A   Clear
9:53 PM 10.9 °F - 7.0 °F 84% 30.28 in 10.0 mi Calm Calm - N/A   Mostly Cloudy
10:53 PM 8.1 °F - 3.9 °F 83% 30.29 in 10.0 mi Calm Calm - N/A   Clear
11:53 PM 12.0 °F 5.9 °F 7.0 °F 80% 30.30 in 10.0 mi NNE 3.5 mph - N/A   Scattered Clouds